Defiance, OH

10:12 PM EST on December 04, 2016 (GMT -0500)
Defiance Memorial

Weather History for KDFI - October, 2012

Change the Weather History Date:

Wednesday, October 3, 2012

  Actual Average Record
Temperature  
Mean Temperature 62 °F -  
Max Temperature 64 °F 70 °F 88 °F (1971)
Min Temperature 59 °F 44 °F 26 °F (1974)
Degree Days  
Heating Degree Days 4    
Growing Degree Days 12 (Base 50)    
Moisture  
Dew Point 57 °F    
Average Humidity 85    
Maximum Humidity 100    
Minimum Humidity 70    
Precipitation  
Precipitation 0.10 in - - ()
Sea Level Pressure  
Sea Level Pressure 30.00 in    
Wind  
Wind Speed 3 mph (SSW)    
Max Wind Speed 14 mph    
Max Gust Speed 20 mph    
Visibility 7 miles    
Events Rain    
Averages and records for this station are not official NWS values.
T = Trace of Precipitation, MM = Missing Value Source: NWS Daily Summary

Daily Weather History Graph

Daily Weather History Graph

Search for Another Location

Airport or City:

Trip Planner

Search our weather history database for the weather conditions in past years. The results will help you decide how hot, cold, wet, or windy it might be!

Date:

Astronomy

Oct. 03, 2012 Rise Set
Actual Time 7:37 AM EDT 7:15 PM EDT
Civil Twilight 7:09 AM EDT 7:42 PM EDT
Nautical Twilight 6:37 AM EDT 8:14 PM EDT
Astronomical Twilight 6:05 AM EDT 8:47 PM EDT
Moon 9:04 PM EDT (10/3) 11:02 AM EDT (10/3)
Length of Visible Light 12h 33m
Length of Day
11h 38m
Waning Gibbous, 89% of the Moon is Illuminated
Oct 3
Waning Gibbous
Oct 8
Last Quarter
Oct 15
New
Oct 21
First Quarter
Oct 29
Full

Hourly Weather History & Observations

Time (EDT) Temp. Dew Point Humidity Pressure Visibility Wind Dir Wind Speed Gust Speed Precip Events Conditions
12:53 AM 62.1 °F 60.1 °F 93% 29.90 in 4.0 mi Calm Calm - N/A   Overcast
1:43 AM 60.8 °F 60.8 °F 100% 29.91 in 3.0 mi Calm Calm - N/A   Overcast
1:53 AM 61.0 °F 60.1 °F 97% 29.91 in 4.0 mi Calm Calm - N/A   Overcast
2:20 AM 60.8 °F 60.8 °F 100% 29.92 in 2.5 mi Calm Calm - 0.00 in Rain Light Rain
2:34 AM 60.8 °F 60.8 °F 100% 29.92 in 1.8 mi Calm Calm - 0.00 in Rain Light Rain
2:53 AM 61.0 °F 60.1 °F 97% 29.93 in 1.5 mi Calm Calm - 0.01 in Rain Light Rain
3:37 AM 60.8 °F 60.8 °F 100% 29.94 in 2.5 mi Calm Calm - 0.09 in Rain Light Rain
3:45 AM 60.8 °F 60.8 °F 100% 29.94 in 4.0 mi Calm Calm - 0.09 in Rain Light Rain
3:53 AM 61.0 °F 61.0 °F 100% 29.94 in 5.0 mi SSW 3.5 mph - 0.09 in Rain Light Rain
4:13 AM 60.8 °F 60.8 °F 100% 29.93 in 5.0 mi Calm Calm - 0.00 in   Overcast
4:45 AM 60.8 °F 60.8 °F 100% 29.94 in 2.0 mi Calm Calm - 0.00 in   Overcast
4:53 AM 61.0 °F 60.1 °F 97% 29.94 in 2.0 mi Calm Calm - 0.00 in   Overcast
5:02 AM 60.8 °F 60.8 °F 100% 29.94 in 1.8 mi Calm Calm - N/A   Overcast
5:06 AM 60.8 °F 60.8 °F 100% 29.94 in 2.0 mi Calm Calm - N/A   Overcast
5:15 AM 60.8 °F 59.0 °F 94% 29.94 in 3.0 mi Calm Calm - N/A   Overcast
5:53 AM 61.0 °F 60.1 °F 97% 29.94 in 5.0 mi Calm Calm - N/A   Overcast
6:53 AM 60.1 °F 57.9 °F 93% 29.97 in 8.0 mi South 4.6 mph - N/A   Partly Cloudy
7:53 AM 59.0 °F 57.0 °F 93% 29.99 in 6.0 mi South 5.8 mph - N/A   Overcast
8:53 AM 60.1 °F 57.0 °F 90% 30.00 in 8.0 mi South 5.8 mph - N/A   Overcast
9:53 AM 61.0 °F 57.0 °F 87% 30.02 in 9.0 mi South 9.2 mph - N/A   Overcast
10:51 AM 60.8 °F 55.4 °F 82% 30.03 in 10.0 mi SW 9.2 mph - N/A   Overcast
10:53 AM 61.0 °F 55.9 °F 83% 30.03 in 10.0 mi SW 8.1 mph - N/A   Overcast
11:04 AM 60.8 °F 55.4 °F 82% 30.03 in 10.0 mi SW 6.9 mph - N/A   Overcast
11:12 AM 60.8 °F 55.4 °F 82% 30.03 in 10.0 mi SSW 8.1 mph - N/A   Overcast
11:20 AM 62.6 °F 55.4 °F 77% 30.03 in 10.0 mi SSW 6.9 mph - N/A   Overcast
11:53 AM 62.1 °F 55.9 °F 80% 30.03 in 10.0 mi South 8.1 mph - N/A   Overcast
12:20 PM 62.6 °F 55.4 °F 77% 30.03 in 10.0 mi SSW 9.2 mph - N/A   Overcast
12:41 PM 62.6 °F 55.4 °F 77% 30.03 in 10.0 mi SSW 9.2 mph - N/A   Overcast
12:48 PM 62.6 °F 55.4 °F 77% 30.04 in 10.0 mi SSW 13.8 mph 19.6 mph N/A   Overcast
12:53 PM 63.0 °F 55.0 °F 75% 30.04 in 10.0 mi SSW 12.7 mph 19.6 mph N/A   Overcast
1:16 PM 62.6 °F 53.6 °F 72% 30.04 in 10.0 mi SSW 10.4 mph - N/A   Overcast
1:53 PM 62.1 °F 54.0 °F 75% 30.03 in 10.0 mi South 10.4 mph 17.3 mph N/A   Overcast
2:31 PM 62.6 °F 53.6 °F 72% 30.03 in 10.0 mi SSW 10.4 mph - N/A   Overcast
2:50 PM 62.6 °F 53.6 °F 72% 30.03 in 10.0 mi SSW 8.1 mph - N/A   Overcast
2:53 PM 63.0 °F 55.0 °F 75% 30.02 in 10.0 mi South 8.1 mph - N/A   Overcast
3:37 PM 64.4 °F 55.4 °F 73% 30.02 in 1.8 mi SSW 10.4 mph - N/A   Haze
3:46 PM 64.4 °F 55.4 °F 73% 30.02 in 4.0 mi SSW 10.4 mph - N/A   Haze
3:53 PM 64.0 °F 55.0 °F 73% 30.02 in 10.0 mi SSW 10.4 mph - N/A   Overcast
4:50 PM 64.4 °F 55.4 °F 73% 30.03 in 10.0 mi SSW 9.2 mph - N/A   Overcast
4:53 PM 64.0 °F 55.0 °F 73% 30.03 in 10.0 mi SSW 10.4 mph - N/A   Overcast
5:53 PM 64.0 °F 55.0 °F 73% 30.04 in 10.0 mi SSW 5.8 mph - N/A   Overcast
6:53 PM 64.0 °F 55.9 °F 75% 30.05 in 10.0 mi SSW 5.8 mph - N/A   Overcast
7:53 PM 63.0 °F 54.0 °F 72% 30.06 in 10.0 mi SSW 4.6 mph - N/A   Overcast
8:53 PM 63.0 °F 53.1 °F 70% 30.07 in 10.0 mi South 3.5 mph - N/A   Overcast
9:53 PM 62.1 °F 53.1 °F 72% 30.08 in 10.0 mi South 4.6 mph - N/A   Mostly Cloudy
11:53 PM 60.1 °F 52.0 °F 75% 30.09 in 10.0 mi South 4.6 mph - N/A   Clear